STARLINK-4658, 53612

Orbit data source: Space-Track

STARLINK-4658, 53612 is a payload satellite owned by SpaceX/Seattle (US) in LEO that was launched on Sun, 28 Aug 2022 UTC via an FALCON 9 launch vehicle from the Air Force Eastern Test Range (AFETR). Payloads include a variety of satellites, spacecraft, and rockets equipped with specific instruments for various scientific and technological missions. These include communications satellites like Starlink; space stations such as the ISS; scientific satellites like the Hubble; Earth observation satellites from companies like Planet Labs, Umbra, and HawkEye 360; GPS; miniature CubeSats for education and research; and military/defense satellites.

Loading next visibility...
STARLINK-4658 details
Identifier
53612, 2022-104AA
Orbit
LEO
Last TLE update15 hours ago
Origin
Flag of USSpaceX/Seattle (US)
ManufacturerSpaceX/Seattle
MissionOperational Commercial Communications
Bus & MotorSTARLINK, Unknown motor
Mass300 kg wet, ~290 kg dry
Launch date (UTC)
2022-08-28 (2 years ago)
Launch vehicle
FALCON 9
Launch site
Air Force Eastern Test Range (AFETR)
Object type
Payload
Rocket body
Debris
Shape & HBRBox + 1 Pan, 8.86 m
Radar Cross Section13.562 m², Large (>1 m²)

Expand to show TLE details & history

TLE from 15 hours ago
0 STARLINK-4658
1 53612U 22104AA  24361.11207658 -.00002441  00000-0 -13543-3 0  9994
2 53612  53.2181  43.0449 0001542  84.1462 275.9706 15.08813660129422
Epoch: 2024-12-26T02:41Z
Definitive object data (Epoch: 2024-12-26T02:41:23.416Z)
Latitude-0.00002°
Longitude-92.39883°
Altitude540.611 km
Speed7.593 km/s
True Right ascension02h 52m 10s
True Declination0° 00' 00"
Sunlit
Object was in full shadow at TLE epoch
Visualization TLE readout
Latitude-43.16876°
Longitude128.94962°
Altitude555.265 km
Speed7.583 km/s
Apparent Right ascension21h 23m 14s
Apparent Declination-87° 58' 15"
Sunlit
Object is in daylight
Visualization observer readout
Local Sidereal Time17:25:25
Azimuth177.756° S
Elevation-38.863°
Doppler factor1
Orbital elements
Apogee altitude541.136 km
Perigee altitude539.002 km
Semi-major axis6,918.206 km
Eccentricity0.0001542
Inclination53.2181°
RAAN43.0449°
Arg. of periapsis84.1462°
True anomaly275.95303°
Mean anomaly275.9706°
Eccentric anomaly275.96181°
Mean motion3.77184 °/min
BSTAR-0.00013543
Orbital period95.44 mins
Loading maneuver chart data...
Loading historical data...
Loading historical data...
Loading historical data...
Loading historical data...
Loading historical data...
Loading historical data...
Loading historical data...

STARLINK-4658 Visibility forecast

Observer location: undefined°, undefined

Span
Click to sort rows by Start time (UTC) header in descending order
Start Az.
Max El. time (UTC)
Max El. Az.
Max El.
End time (UTC)
End Az.
4 mins2024-12-27 04:16:59.497Z155.394° SSE2024-12-27 04:18:59.497Z121.684° SE15.486°2024-12-27 04:20:59.497Z90.619° ESE
6 mins2024-12-27 05:54:59.497Z242.332° WSW2024-12-27 05:57:59.497Z355.058° N41.815°2024-12-27 06:00:59.497Z44.022° NE
4 mins2024-12-27 07:35:59.497Z312.148° NW2024-12-27 07:37:59.497Z348.509° N16.968°2024-12-27 07:39:59.497Z20.551° NNE
5 mins2024-12-27 10:56:59.497Z346.58° N2024-12-27 10:58:59.497Z27.456° NE21.446°2024-12-27 11:01:59.497Z77.255° E
6 mins2024-12-27 12:35:59.497Z303.442° NW2024-12-27 12:38:59.497Z173.63° S41.881°2024-12-27 12:41:59.497Z139.508° SSE
|